Home > Weather > Mokpo > Past weeks

Flag for South Korea Weather for the Past 2 Weeks in Mokpo, South Korea

Now
58 °F

Sunny.


Feels Like: 59 °F
Forecast: 54 / 65 °F
Wind: 3 mph from North

Location: Kunsan Ab

Current Time: Apr 29, 2016 at 10:57:33 AM

Latest Report: Apr 29, 2016 at 9:58 AM


Visibility: 8 mi

Pressure: 29.92 "Hg

Humidity: 72%

Dew Point: 50 °F

Location of MokpoLocation

Historic Weather in Mokpo — Graph

°F

Mokpo Temperature Yesterday

Maximum temperature yesterday: 61 °F (at 2:58 PM)
Minimum temperature yesterday: 52 °F (at 11:58 PM)
Average temperature yesterday: 56 °F

High & Low Weather Summary for the Past Weeks

 TemperatureHumidityPressure
High72 °F (Apr 15, 1:58 PM)100% (Apr 14, 2:58 PM)30.27 "Hg (Apr 14, 2:58 PM)
Low45 °F (Apr 19, 5:58 AM)31% (Apr 23, 4:58 PM)29.28 "Hg (Apr 16, 11:59 PM)
Average56 °F91%29.91 "Hg
* Reported Apr 14 8:58 AM — Apr 29 8:58 AM, Mokpo, Weather by CustomWeather, © 2016

Note: Actual official high and low records may vary slightly from our data, if they occured in-between our weather recording intervals... More about our weather records

Advertising

Mokpo Weather History for the Previous 24 Hours

Scroll right to see more
 ConditionsComfort  
Time TempWeatherWind HumidityBarometerVisibility
8:58 AM
Fri, Apr 29
57 °FPassing clouds.6 mph77%29.92 "Hg9 mi
7:58 AM54 °FSunny.6 mph82%29.90 "Hg8 mi
6:58 AM50 °FFog.9 mph94%29.87 "Hg3 mi
6:03 AM48 °FFog.6 mph100%29.87 "Hg1 mi
5:04 AM48 °FFog.7 mph100%29.87 "Hg2 mi
3:58 AM50 °FFog.5 mph95%29.87 "Hg4 mi
2:58 AM51 °FPassing clouds.3 mph90%29.87 "Hg7 mi
1:58 AM50 °FClear.7 mph90%29.86 "Hg9 mi
12:58 AM52 °FClear.5 mph84%29.85 "Hg10 mi
11:58 PM
Thu, Apr 28
52 °FClear.8 mph86%29.84 "Hg10 mi
10:58 PM52 °FClear.8 mph90%29.84 "Hg8 mi
9:58 PM52 °FClear.3 mph88%29.84 "Hg9 mi
8:58 PM53 °FClear.8 mph83%29.83 "Hg10 mi
7:58 PM54 °FClear.6 mph82%29.81 "Hg10 mi
6:58 PM55 °FSunny.7 mph76%29.80 "Hg9 mi
5:58 PM58 °FSunny.8 mph70%29.80 "Hg10 mi
4:58 PM59 °FSunny.10 mph66%29.79 "Hg10 mi
3:58 PM60 °FSunny.12 mph75%29.78 "Hg8 mi
2:58 PM61 °FScattered clouds.8 mph59%29.77 "Hg9 mi
1:58 PM60 °FBroken clouds.8 mph66%29.77 "Hg8 mi
12:58 PM60 °FBroken clouds.9 mph68%29.78 "Hg8 mi
11:58 AM59 °FScattered clouds.7 mph72%29.78 "Hg8 mi
10:58 AM61 °FPartly sunny.2 mph98%29.79 "Hg8 mi
Weather by CustomWeather, © 2016

See weather overviewHow to use our weather pages